Location: LDNL
(36.4545°S, 141.6685°E)
Time: 00:32:02
(UTC+11:00)

Vanguard 3 - Visible Passes

Search period start: 06 February 2023 00:00
Search period end: 16 February 2023 00:00
Orbit: 509 x 3252 km, 33.4° (Epoch: 05 February)

Date Brightness Start Highest point End Pass type
(mag) Time Alt. Az. Time Alt. Az. Time Alt. Az.
06 Feb 10.3 04:47:33 18° NNW 04:57:41 31° NNE 05:07:54 10° E visible
07 Feb 10.8 03:36:22 20° NNE 03:40:34 22° NE 03:50:40 10° ENE visible
07 Feb 9.8 05:40:48 14° NW 05:55:14 46° NNE 06:05:24 10° E visible
08 Feb 11.1 02:25:08 13° NE 02:25:08 13° NE 02:29:56 10° ENE visible
08 Feb 10.3 04:29:35 25° NNW 04:38:09 36° NNE 04:49:34 10° E visible
09 Feb 10.6 03:18:17 25° NNE 03:20:51 26° NE 03:32:30 10° E visible
09 Feb 9.8 05:22:42 20° NW 05:35:45 52° NNE 05:46:56 10° E visible
10 Feb 11.1 02:06:56 16° NE 02:06:56 16° NE 02:12:50 10° ENE visible
10 Feb 10.2 04:11:22 32° N 04:18:25 41° NNE 04:31:01 10° E visible
10 Feb 9.5 06:15:57 10° WNW 06:33:21 67° NNE 06:43:40 10° E visible
11 Feb 10.5 02:59:57 30° NNE 03:00:57 30° NE 03:13:59 10° E visible
11 Feb 9.8 05:04:22 26° NW 05:16:06 57° NNE 05:28:18 10° E visible
12 Feb 11.0 01:48:30 18° ENE 01:48:30 18° ENE 01:54:48 10° E visible
12 Feb 10.1 03:52:55 39° N 03:58:31 46° NNE 04:12:17 10° E visible
12 Feb 9.6 05:57:20 14° WNW 06:13:50 71° NNE 06:25:05 10° E visible
13 Feb 10.5 02:41:24 34° NE 02:41:24 34° NE 02:55:11 10° E visible
13 Feb 9.8 04:45:49 32° NW 04:56:16 62° NNE 05:09:32 10° E visible
14 Feb 11.0 01:29:51 19° ENE 01:29:51 19° ENE 01:36:14 10° E visible
14 Feb 10.1 03:34:15 45° N 03:38:26 50° NNE 03:53:20 10° E visible
14 Feb 9.6 05:38:40 19° WNW 05:54:09 74° N 06:06:22 10° E visible
15 Feb 10.4 02:22:39 37° NE 02:22:39 37° NE 02:36:07 10° E visible
15 Feb 9.8 04:27:03 38° NW 04:36:18 66° NNE 04:50:38 10° E visible
15 Feb 9.5 06:33:37 10° W 06:52:00 79° N 07:02:58 10° E visible
